C/2020 R7 ( ATLAS )

Japanese version
Home page
Updated on May 29, 2022

---------------------------------------------------------------------

* Profile

Discovery Date September 15, 2020
Magnitude 19.0 mag
Discoverer Asteroid Terrestrial-Impact Last Alert System (ATLAS) search program

* Pictures

* Orbital Elements

Epoch 2022 Sept. 18.0 TT = JDT 2459840.5
T 2022 Sept. 16.24797 TT                                Rudenko
q   2.9558483            (2000.0)            P               Q
z  -0.0000333      Peri.  347.84111     +0.05930165     -0.41758589
 +/-0.0000022      Node   268.28190     -0.82293724     -0.53457056
e   1.0000985      Incl.  114.89128     -0.56502886     +0.73474917
From 172 observations 2019 Dec. 3-2021 Aug. 14, mean residual 0".4.

* Finding Charts

* Magnitudes Graph

        m1 = 6.0 + 5 log d + 10.0 log r

---------------------------------------------------------------------

The orbital elements are published on M.P.E.C. 2021-R75.
The charts are made with StellaNavigator Ver.10 (AstroArts).
The magnitudes graphs are made with Comet for Windows.

---------------------------------------------------------------------

Copyright(C) Seiichi Yoshida (comet@aerith.net). All rights reserved.